#timestamp,LO_Frequency,Hit,StdDev 
1509793215.8,286047002.8,N
1509793235.6,286046999.3,N
1509793255.5,286046995.8,N
1509793275.3,286046995.9,N
1509793295.1,286046997.8,N
1509793315.9,286046994.0,N
1509793335.7,286046997.0,N
1509793355.5,286046999.1,N
1509793375.4,286046997.3,N
1509793395.2,286046994.4,N
1509793415.0,286046990.3,N
1509793415.9,286046990.3,N
1509793435.8,286046990.2,N
1509793455.6,286046996.0,N
1509793475.4,286046993.1,N
1509793495.3,286046993.3,N
1509793515.1,286046997.9,N
1509793516.0,286046997.9,N
1509793535.8,286046997.8,N
1509793555.7,286046993.5,N
1509793575.5,286046990.6,N
1509793595.3,286046992.4,N
1509793615.2,286046992.5,N
1509793635.0,286046996.4,N
1509793635.9,286046996.4,N
1509793655.7,286046994.2,N
1509793675.6,286046995.5,N
1509793695.4,286046996.6,N
1509793715.2,286046995.2,N
1509793735.1,286046999.1,N
1509793736.0,286046999.1,N
1509793755.8,286046997.6,N
1509793775.6,286046998.5,N
1509793795.5,286046999.0,N
1509793815.3,286046997.4,N
1509793835.1,286046997.3,N
1509793855.9,286046997.0,N
1509793875.7,286046996.3,N
1509793895.5,286046991.8,N
1509793915.4,286046992.4,N
1509793935.2,286046996.0,N
1509793955.1,286046999.1,N
1509793956.0,286046999.1,N
1509793975.8,286046997.0,N
1509793995.6,286046995.5,N
1509794015.5,286046999.5,N
1509794035.3,286046996.2,N
1509794055.1,286047000.4,N
1509794075.9,286046995.6,N
1509794095.7,286046994.2,N
1509794115.5,286046996.5,N
1509794135.4,286046999.0,N
1509794155.2,286046999.1,N
1509794175.0,286046996.7,N
1509794175.9,286046996.7,N
1509794195.8,286047001.6,N
1509794215.6,286046999.4,N
1509794235.4,286046996.9,N
1509794255.3,286046993.6,N
1509794275.1,286046988.5,Y
1509794295.8,286046991.6,P
1509794315.7,286046989.0,P
1509794335.5,286046990.9,N
1509794355.3,286046991.6,N
1509794375.2,286046992.0,N
1509794395.9,286046990.6,Y
1509794415.7,286047001.4,P
1509794435.6,286047001.7,N
1509794455.4,286047001.8,N
1509794475.2,286047002.6,N
1509794495.1,286047000.5,N
1509794496.0,286047000.5,N
1509794515.8,286047002.8,N
1509794535.6,286046998.2,N
1509794555.5,286047003.2,N
1509794575.3,286047007.2,N
1509794595.1,286047009.1,N
1509794615.9,286047006.9,N
1509794635.7,286047007.6,N
1509794655.5,286047009.0,N
1509794675.4,286047003.7,N
1509794695.2,286047005.8,N
1509794715.0,286047006.1,N
1509794715.9,286047006.1,N
1509794735.8,286047005.0,N
1509794755.6,286047007.3,N
1509794775.5,286047014.0,Y
1509794795.3,286047007.3,P
1509794815.1,286047007.6,P
1509794835.9,286047009.6,P
1509794855.7,286047017.0,Y
1509794875.5,286047011.8,P
1509794895.4,286047010.6,P
1509794915.2,286047008.8,P
1509794935.0,286047003.8,N
1509794935.9,286047003.8,N
1509794955.8,286047006.9,N
1509794975.6,286047003.2,N
1509794995.4,286047004.9,N
1509795015.3,286047000.2,N
1509795035.1,286046998.8,N
1509795055.8,286047002.3,N
1509795075.7,286047004.3,N
1509795095.5,286047004.4,N
1509795115.3,286046999.5,N
1509795135.2,286046995.1,N
1509795155.0,286046996.4,N
1509795155.9,286046996.4,N
1509795175.7,286046993.6,N
1509795195.6,286046994.7,N
1509795215.4,286046993.3,N
1509795235.2,286046994.3,N
1509795255.1,286046991.1,N
1509795256.0,286046991.1,N
1509795275.8,286046992.2,N
1509795295.6,286046994.3,N
1509795315.5,286046990.6,N
1509795335.3,286046989.2,N
1509795355.1,286046989.6,N
1509795375.9,286046986.1,N
1509795395.7,286046988.3,N
1509795415.5,286046993.1,N
1509795435.4,286046993.7,N
1509795455.2,286046992.8,N
1509795475.0,286046989.7,N
1509795476.0,286046989.7,N
1509795495.8,286046985.3,N
1509795515.6,286046988.2,N
1509795535.5,286046987.3,N
1509795555.3,286046983.9,Y
1509795575.1,286046989.9,P
1509795595.9,286046983.8,P
1509795615.7,286046984.0,P
1509795635.5,286046982.1,Y
1509795655.4,286046992.0,P
1509795675.2,286046993.6,P
1509795695.0,286046996.3,N
1509795695.9,286046996.3,N
1509795715.8,286046995.7,N
1509795735.6,286046997.9,N
1509795755.5,286046997.7,N
1509795775.3,286046992.7,N
1509795795.1,286046992.0,N
1509795815.9,286046992.5,N
1509795835.7,286046987.6,Y
1509795855.5,286046996.9,P
1509795875.4,286046995.3,P
1509795895.2,286046993.0,P
1509795915.0,286046990.7,Y
1509795915.9,286046990.7,P
1509795935.8,286047001.8,N
1509795955.6,286047000.2,N
1509795975.4,286046998.6,N
1509795995.3,286046998.9,N
1509796015.1,286047002.8,N
1509796035.8,286047000.0,N
1509796055.7,286047001.5,N
1509796075.5,286047003.7,N
1509796095.3,286047004.5,N
1509796115.2,286047007.0,N
1509796135.0,286047004.0,N
1509796135.9,286047004.0,N
1509796155.7,286047002.9,N
1509796175.6,286047005.4,N
1509796195.4,286047008.3,N
1509796215.2,286047009.1,N
1509796235.1,286047008.3,N
1509796236.0,286047008.3,N
1509796255.8,286047006.9,N
1509796275.6,286047004.2,N
1509796295.5,286047000.1,N
1509796315.3,286047004.0,N
1509796335.1,286047010.1,N
1509796355.9,286047008.0,N
1509796375.7,286047005.9,N
1509796395.5,286047007.6,N
1509796415.4,286047004.0,N
1509796435.2,286047003.8,N
1509796455.0,286047000.6,N
1509796456.0,286047000.6,N
1509796475.8,286047007.3,N
1509796495.6,286047007.0,N
1509796515.5,286047005.3,N
1509796535.3,286047008.7,N
1509796555.1,286047012.7,Y
1509796575.9,286047009.0,P
1509796595.7,286047008.9,P
1509796615.5,286047008.8,P
1509796635.4,286047010.7,Y
1509796655.2,286046999.5,P
1509796675.0,286046996.8,N
1509796675.9,286046996.8,N
1509796695.8,286046993.4,N
1509796715.6,286046996.0,N
1509796735.4,286046995.5,N
1509796755.3,286046999.1,N
1509796775.1,286047005.1,N
1509796795.8,286047005.0,N
